This demonstration page uses our WeatherBlox Daily Observations layout. Learn more.

Left ArrowRight Arrow

31.84235, -102.49876

Hourly Observations for July 16, 2020

Temp ( °F °C ) Dew Point ( °F °C ) Humidity (%) Winds ( mph kmh ) Pressure ( in mb ) Visibility ( mi km ) Precip ( " mm )
12:53 am 00:53 Clear 88 31.1 52 11.1 29 29 S 14 22 29.85 1011 10 16 0.00 0.00
1:53 am 01:53 Clear 86 30 52 11.1 31 31 SSW 13 20 29.86 1011 10 16 0.00 0.00
2:53 am 02:53 Clear 84 28.9 51 10.6 32 32 S 14 22 29.86 1011 10 16 0.00 0.00
3:53 am 03:53 Clear 84 28.9 50 10 31 31 S 7 11 29.87 1012 10 16 0.00 0.00
4:53 am 04:53 Clear 82 27.8 49 9.4 32 32 S 7 11 29.88 1012 10 16 0.00 0.00
5:53 am 05:53 Clear 80 26.7 50 10 35 35 SE 7 11 29.90 1013 10 16 0.00 0.00
6:53 am 06:53 Clear 76 24.4 51 10.6 42 42 E 8 13 29.92 1013 10 16 0.00 0.00
7:53 am 07:53 Sunny 79 26.1 52 11.1 39 39 E 5 7 29.93 1014 9 14 0.00 0.00
8:53 am 08:53 Sunny 82 27.8 58 14.4 44 44 E 12 19 29.96 1015 9 14 0.00 0.00
9:53 am 09:53 Sunny 84 28.9 60 15.6 44 44 SE 14 22 29.96 1015 9 14 0.00 0.00
10:53 am 10:53 Sunny 88 31.1 60 15.6 39 39 SE 15 24 29.95 1014 9 14 0.00 0.00
11:53 am 11:53 Sunny 90 32.2 58 14.4 34 34 SSE 15 24 29.95 1014 9 14 0.00 0.00
12:53 pm 12:53 Sunny 94 34.4 56 13.3 28 28 ESE 15 24 29.94 1014 10 16 0.00 0.00
1:53 pm 13:53 Sunny 96 35.6 54 12.2 24 24 SSE 16 26 29.92 1013 10 16 0.00 0.00
2:53 pm 14:53 Sunny 97 36.1 50 10 20 20 SSE 17 28 29.90 1013 10 16 0.00 0.00
3:53 pm 15:53 Sunny 99 37.2 46 7.8 16 16 S 14 22 29.88 1012 10 16 0.00 0.00
4:53 pm 16:53 Sunny 99 37.2 44 6.7 15 15 SSE 16 26 29.86 1011 10 16 0.00 0.00
5:53 pm 17:53 Sunny 100 37.8 45 7.2 15 15 SE 21 33 29.85 1011 10 16 0.00 0.00
6:53 pm 18:53 Sunny 98 36.7 45 7.2 16 16 SSE 17 28 29.85 1011 10 16 0.00 0.00
7:53 pm 19:53 Sunny 96 35.6 45 7.2 17 17 SSE 17 28 29.85 1011 10 16 0.00 0.00
8:53 pm 20:53 Sunny 93 33.9 47 8.3 21 21 SSE 13 20 29.85 1011 10 16 0.00 0.00
9:53 pm 21:53 Clear 91 32.8 48 8.9 23 23 SSE 12 19 29.88 1012 10 16 0.00 0.00
10:53 pm 22:53 Clear 89 31.7 48 8.9 24 24 S 10 17 29.91 1013 10 16 0.00 0.00
11:53 pm 23:53 Clear 87 30.6 51 10.6 29 29 SSE 12 19 29.93 1014 10 16 0.00 0.00

Powered by Vaisala Xweather